NOAA 15 (25338 NORAD) Tracking and Keplerian Element Data

This shows tracking and keplerian element data for the satellite.

Feedback or suggestion? Click here.




ElementValue
Catalog25338
NameNOAA 15
Epoch Orbit21559
Epoch Day269.12135413
Epoch Year2021
RAAN296.714
Inclination98.6758
Eccentricity0.0010131
Argument of Perigee354.0012
Mean Anonmoly6.1045
Mean Motion14.26059662
Decay Rate3.4E-07
L11 25338U 98030A 21269.12135413 .00000034 00000-0 32869-4 0 9990
L22 25338 98.6758 296.7140 0010131 354.0012 6.1045 14.26059662215595

Live tracking and technical data element details for NOAA 15 (NORAD 25338). NOAA 15 can be tracked NOW for your location showing map with azimuth and elevation plus other details from your city location.

Track the satellite on the map from your city or location and see movement details for azimuth, elevation, latitude, longitude, range, height, and movement on the map or in text.







IsCatalogInMostPopularTable: catalog: 25338, numindb: 589
Update: records affected: 1



GetName: 25338 NOAA 15

Hit Count: updated at: Mon, 27 Sep 2021 00:18:42 GMT